Hourly Data Report for September 20, 2015

All times are specified in Local Standard Time (LST). Add 1 hour to adjust for Daylight Saving Time where and when it is observed.

TORONTO INTL A
ONTARIO

43°40'36.000" N
79°37'50.000" W
173.40 m
6158731
71624
YYZ

Download Data

Hourly Data (September 2015)
Hourly Data Report for September 20, 2015
Temp Definition
°C
Dew Point Temp Definition
°C
Rel Hum Definition
%
Wind Dir Definition
10's deg

Wind Spd Definition
km/h
Visibility Definition
km
Stn Press Definition
kPa
Hmdx Definition


Wind Chill Definition


Weather Definition


TIME
00:00 Legend Double Dagger 12.7 9.4 80 31 13 24.1 99.58     LegendNANA
01:00 Legend Double Dagger 12.4 9.1 80 31 13 24.1 99.63     Mainly Clear
02:00 Legend Double Dagger 12.2 8.1 76 36 9 24.1 99.70     LegendNANA
03:00 Legend Double Dagger 11.9 7.7 75 36 15 24.1 99.76     LegendNANA
04:00 Legend Double Dagger 11.3 7.5 77 34 15 24.1 99.85     Clear
05:00 Legend Double Dagger 10.5 7.2 80 35 16 24.1 99.93     LegendNANA
06:00 Legend Double Dagger 9.9 7.2 83 36 19 24.1 100.02     LegendNANA
07:00 Legend Double Dagger 10.7 7.4 80 34 11 24.1 100.11     Mainly Clear
08:00 Legend Double Dagger 12.3 7.8 74 1 15 24.1 100.17     LegendNANA
09:00 Legend Double Dagger 13.9 6.8 62 4 8 24.1 100.21     LegendNANA
10:00 Legend Double Dagger 15.6 5.3 50 1 7 24.1 100.25     Mostly Cloudy
11:00 Legend Double Dagger 16.4 5.8 49 2 9 24.1 100.24     LegendNANA
12:00 Legend Double Dagger 17.0 6.9 51 14 8 24.1 100.22     LegendNANA
13:00 Legend Double Dagger 17.1 7.8 54 17 13 24.1 100.19     Mostly Cloudy
14:00 Legend Double Dagger 17.5 7.6 52 18 14 24.1 100.14     LegendNANA
15:00 Legend Double Dagger 17.7 8.4 54 15 7 24.1 100.10     LegendNANA
16:00 Legend Double Dagger 18.0 8.7 54 14 12 24.1 100.08     Mostly Cloudy
17:00 Legend Double Dagger 16.6 8.4 58 16 12 24.1 100.10     LegendNANA
18:00 Legend Double Dagger 15.2 8.5 64 15 10 24.1 100.08     LegendNANA
19:00 Legend Double Dagger 15.1 8.2 63 17 4 24.1 100.11     Mostly Cloudy
20:00 Legend Double Dagger 15.1 7.5 60 19 3 24.1 100.16     LegendNANA
21:00 Legend Double Dagger 14.7 7.1 60 24 4 24.1 100.19     LegendNANA
22:00 Legend Double Dagger 14.5 7.4 62 7 3 24.1 100.18     Mostly Cloudy
23:00 Legend Double Dagger 14.6 7.0 60 0 1 24.1 100.19     LegendNANA

Notes on Data Quality.

Legend

  • E = Estimated
  • M = Missing
  • NA = Not Available
  • ‡ = Partner data that is not subject to review by the National Climate Archives
Date modified: